Location: Aulnoy
(48.8410°N, 3.0967°E)
Time: 14:05:54
(UTC+00:00)

CSL-04 Debris - Visible Passes

Search period start: 25 September 2023 00:00
Search period end: 05 October 2023 00:00
Orbit: 824 x 846 km, 98.8° (Epoch: 24 September)

Date Brightness Start Highest point End Pass type
(mag) Time Alt. Az. Time Alt. Az. Time Alt. Az.
25 Sep 4.7 18:37:22 10° SE 18:42:21 38° ENE 18:47:21 10° N visible
25 Sep 5.5 20:18:31 14° SSW 20:22:44 37° W 20:27:46 10° NNW visible
26 Sep 5.1 18:21:26 10° ESE 18:26:03 29° ENE 18:30:40 10° N visible
26 Sep 4.9 20:02:02 16° S 20:06:11 50° W 20:11:29 10° NNW visible
27 Sep 5.4 18:05:38 10° ESE 18:09:47 23° ENE 18:13:55 10° N visible
27 Sep 4.4 19:45:34 18° S 19:49:41 68° WSW 19:55:07 10° NNW visible
27 Sep 7.0 21:30:12 10° W 21:31:04 10° W 21:31:56 10° WNW visible
28 Sep 4.1 19:29:05 18° SSE 19:33:13 90° WSW 19:38:41 10° NNW visible
28 Sep 6.7 21:11:22 10° WSW 21:14:20 15° W 21:17:19 10° NW visible
29 Sep 4.1 19:12:37 17° SSE 19:16:47 69° ENE 19:22:11 10° N visible
29 Sep 6.4 20:54:18 12° SW 20:57:39 20° W 21:01:36 10° NW visible
30 Sep 4.4 18:56:08 16° SE 19:00:23 51° ENE 19:05:38 10° N visible
30 Sep 6.0 20:37:49 16° SW 20:41:01 27° W 20:45:36 10° NW visible
01 Oct 4.7 18:39:40 13° SE 18:44:01 39° ENE 18:49:01 10° N visible
01 Oct 5.5 20:21:21 20° SSW 20:24:25 36° W 20:29:25 10° NNW visible
02 Oct 5.0 18:23:11 11° ESE 18:27:42 30° ENE 18:32:20 10° N visible
02 Oct 5.0 20:04:52 24° SSW 20:07:51 49° W 20:13:07 10° NNW visible
03 Oct 5.3 18:07:14 10° ESE 18:11:25 23° ENE 18:15:35 10° N visible
03 Oct 4.4 19:48:23 27° S 19:51:20 66° WSW 19:56:45 10° NNW visible
04 Oct 5.6 17:51:38 10° E 17:55:10 18° NE 17:58:42 10° NNE visible
04 Oct 4.1 19:31:54 28° SSE 19:34:52 88° WSW 19:40:19 10° NNW visible
04 Oct 6.7 21:13:35 11° WSW 21:16:01 14° W 21:18:50 10° NW visible
